CZ-6A DEB

Satellite information

Favourite Embed

Satellite Type and Status

DEBRISIN ORBIT

Key statistics

Satellite CZ-6A DEB at a glance.

Uptime

1075

Days in orbit

Revolutions

≈ 14.4

Per day

Orbit

SSO

Sun Synchronous Orbit

Inclination

98.7

Latest

Satellite identification and parameters

Extended collection of information and parameters for CZ-6A DEB.

Object identification

Identified? True

Debris? True

Object name: CZ-6A DEB

International designator: 2022-151CQ

Object number (NORAD): 54345

Object ID (CCSDS): 54345

Country: PEOPLES REPUBLIC OF CHINA (PRC)

Current information (Y/N): Y

RCS size: SMALL

Orbital parameters

Period: 99.797 minutes

Inclination: 98.6783 deg

SMA: 7126.965 km

Apoapsis: 789.849 km

Periapsis: 707.811 km

RAAN: 314.4643 deg

Eccentricy: 0.00575547

Argument of periapsis: 68.8071 deg

Mean anomaly: 291.9254 deg

Mean motion: 14.42931952 rev/day

Mean motion (dot): 0.00013413 rev/day2

B* drag term: 0.0039382665 1/REarth

Two-line elements (TLE)

Creation date: Oct. 21, 2025, 3:26 a.m.

Reference frame: TEME

Reference center: EARTH

Epoch: Oct. 20, 2025, 7:19 p.m. UTC

TLE line 0: 0 CZ-6A DEB

TLE line 1: 1 54345U 22151CQ 25293.80487724 .00013413 00000-0 39383-2 0 9993

TLE line 2: 2 54345 98.6783 314.4643 0057555 68.8071 291.9254 14.42931952152961

Live tracking on map

Real-time ground track for satellite CZ-6A DEB.

In-orbit conjunctions

A list of the most updated potential collisions computed for object CZ-6A DEB.

Target Orbit TCA Probability of collision Miss distance Type
SL-8 R/B LEO 2025-09-14 04:38:21 0.0005614714 285.0 (m) ROCKET BODY
CZ-6A R/B LEO 2025-06-01 03:21:43 0.0013143 489.0 (m) ROCKET BODY
COSMOS 2251 DEB LEO 2025-05-26 09:31:56 0.0002746047 171.0 (m) DEBRIS

Associated space launch

Chinese satellite reported for atmospheric/ocean/environmental/spatial parameter research purposes, details TBD.

CZ-6A DEB was lifted into orbit during the mission ‘Long March 6A | Yunhai 3’, on board a Long March 6A space rocket.

The launch took place on Nov. 11, 2022, 10:52 p.m. from Launch Complex 9A.

For more information about the launch, click the button.

Launch to space Long March 6A | Yunhai 3
Long March 6A | Yunhai 3

Agency: N/A

Status: Launch Successful

Launch date: Nov. 11, 2022, 10:52 p.m. UTC

Rocket: Long March 6A

Launch pad: Launch Complex 9A

Location: Taiyuan Satellite Launch Center, People's Republic of China

...

Latest news about this satellite

There are no fresh news available about this satellite. Check back as we update our databases every day.


Newsletter sign-up

Weekly statistics, charts and insights to help you stay on top of the space industry.